Regional Weather Roundup
Issued by NWS Little Rock, AR

Home | Current Version | Previous Version | Text Only | Print | Product List | Glossary On
Versions: 1 2 3 4 5 6 7 8 9 10 11 12 13 14 15 16 17 18 19 20 21 22 23 24 25 26 27 28 29 30 31 32 33 34 35 36 37 38 39 40 41 42 43 44 45 46 47 48 49 50
000
ASUS44 KLZK 280705
RWRLZK

WEATHER ROUNDUP FOR ARKANSAS
NATIONAL WEATHER SERVICE LITTLE ROCK AR
200 AM CDT FRI AUG 28 2015

NOTE: "FAIR" INDICATES FEW OR NO CLOUDS BELOW 12,000 FEET WITH NO
SIGNIFICANT WEATHER AND/OR OBSTRUCTIONS TO VISIBILITY.

ARZ001-003-010-029-280800-
NORTHWEST ARKANSAS

CITY           SKY/WX    TMP DP  RH WIND       PRES   REMARKS
FAYETTEVILLE   PTCLDY    65  61  87 S5        30.05R
FORT SMITH     PTCLDY    67  63  87 E3        30.03F
BENTONVILLE    PTCLDY    64  59  82 CALM      30.05S
ROGERS         PTCLDY    66  62  87 SE5       30.06R
SILOAM SPGS    PTCLDY    64  55  72 SE8       30.03S
HIGHFILL       PTCLDY    65  63  93 S3        30.04F
$$

ARZ004-005-016-280800-
NORTH CENTRAL ARKANSAS

CITY           SKY/WX    TMP DP  RH WIND       PRES   REMARKS
BATESVILLE     CLEAR     61  59  94 CALM      30.07F
FLIPPIN        CLEAR     61  55  82 CALM      30.06S
MTN HOME       CLEAR     62  59  90 SE3       30.07F
$$

ARZ040-041-280800-
WEST CENTRAL ARKANSAS

CITY           SKY/WX    TMP DP  RH WIND       PRES   REMARKS
MENA           CLEAR     63  63 100 CALM      30.08S
MOUNT IDA      CLEAR     62  60  93 CALM      30.05S
$$

ARZ009-017-025-026-028-280800-
NORTHEAST ARKANSAS

CITY           SKY/WX    TMP DP  RH WIND       PRES   REMARKS
JONESBORO      CLEAR     60  58  92 CALM      30.07S
NEWPORT        CLEAR     64  63  97 CALM      30.08S
WALNUT RIDGE   CLEAR     63  57  82 NW5       30.07S
BLYTHEVILLE    CLEAR     61  59  93 CALM      30.06F
$$

ARZ022-023-033-042-044-280800-
CENTRAL ARKANSAS

CITY           SKY/WX    TMP DP  RH WIND       PRES   REMARKS
LITTLE ROCK    CLEAR     67  61  81 CALM      30.06F
N LITTLE ROCK    N/A     66  62  85 NE3       30.06F
JACKSONVILLE   CLEAR     62  59  90 CALM      30.05F
SEARCY         CLEAR     61  60  97 CALM      30.08F
HOT SPRINGS    CLEAR     67  60  78 CALM      30.06F
RUSSELLVILLE   CLEAR     62  60  93 CALM      30.05F
$$

ARZ036-280800-
EAST ARKANSAS

CITY           SKY/WX    TMP DP  RH WIND       PRES   REMARKS
WEST MEMPHIS   CLEAR     -1  -1 100 CALM      30.04F
$$

ARZ050-053-066-070-073-280800-
SOUTHWEST ARKANSAS

CITY           SKY/WX    TMP DP  RH WIND       PRES   REMARKS
ARKADELPHIA    FAIR      62  61  97 CALM      30.05F
CAMDEN         CLEAR     59  57  94 CALM      30.03S
TEXARKANA      CLEAR     69  63  81 SE6       30.03F
EL DORADO      CLEAR     60  58  92 CALM      30.03F
DE QUEEN       PTCLDY    62  62 100 E3        30.03S FOG
$$

ARZ056-057-069-280800-
SOUTHEAST ARKANSAS

CITY           SKY/WX    TMP DP  RH WIND       PRES   REMARKS
PINE BLUFF     CLEAR     65  61  87 CALM      30.05R
STUTTGART      CLEAR     63  57  82 CALM      30.06R
MONTICELLO     CLEAR     62  61  96 CALM      30.03F

$$




USA.gov is the U.S. government's official web portal to all federal, state and local government web resources and services.